Tracking 22879 objects as of 21-Apr-2021
HD Live streaming from Space Station
objects crossing your sky now

DELTA 1 DEB

Track DELTA 1 DEB now!
10-day predictions


NORAD ID: 42575
Int'l Code: 1973-086HP
Perigee: 1,143.9 km
Apogee: 1,477.7 km
Inclination: 103.5 °
Period: 111.7 minutes
Semi major axis: 7681 km
RCS: Unknown
Launch date: November 6, 1973
Source: United States (US)
Launch site: AIR FORCE WESTERN TEST RANGE (AFWTR)

Note: This is SATELLITE DEBRIS
aabbcc
Your satellite tracking list
Your tracking list is empty




NASA's NSSDC Master Catalog

Two Line Element Set (TLE):
1 42575U 73086HP  20310.35293853  .00002401  00000-0  85503-2 0  9991
2 42575 103.5123   3.8750 0217297 276.5346  81.1044 12.89460959754641
Source of the keplerian elements: AFSPC